Location: Bay Harbour
(38.2612°N, 75.2555°W)
Time: 01:10:45
(UTC+00:00)

Cosmos 1386 Rocket - Pass Details

Date: 29 October 2020
Orbit: 929 x 1006 km, 83.0° (Epoch: 02 December)

Event Time Altitude Azimuth Distance (km) Brightness Sun altitude
Rises 23:31:37 0° 354° (N) 3,739 7.6 -17.7°
Reaches altitude 10° 23:34:11 10° 355° (N) 2,781 6.9 -18.2°
Maximum altitude 23:40:35 82° 82° (E) 1,007 4.4 -19.4°
Drops below altitude 10° 23:46:52 10° 171° (S) 2,723 6.8 -20.6°
Sets 23:49:21 0° 173° (S) 3,656 7.4 -21.1°
